User: anonymous   Login
Location: Theydon Bois
(51.6750°N, 0.1050°E)
Time: 17:16:03
(UTC+01:00)
Language:

Geosat - Orbit

View from above orbital plane
View from above orbital plane
View from above satellite
View from above satellite

Ground track
Ground track

The orbit data is extracted from the following two-line orbital elements,

1 15595U 85021A   17292.95300122 -.00000051 +00000-0 +27821-4 0  9995
2 15595 108.0395 354.6659 0002187 246.3012 193.1758 14.38043520708051
Epoch (UTC): 19 October 2017 22:52:19
Eccentricity: 0.0002187
inclination: 108.0395°
perigee height: 763 km
apogee height: 766 km
right ascension of ascending node: 354.6659°
argument of perigee: 246.3012°
revolutions per day: 14.38043520
mean anomaly at epoch: 193.1758°
orbit number at epoch: 70805

The dashed part of the orbit path shows where the satellite is in the earth's shadow,  

DLR